sat.trackr.live / text

‹ back to catalog

STARLINK-34949

NORAD 65175 · 2025-175B

PAYLOAD ACTIVE UNKNOWN

§ Identity

Operator
Country
US
Launch date
2025-08-14
Launch site
AFWTR
Launch vehicle
Mass (kg)
RCS (m²)

Purposes: comms

External: N2YO · Heavens-Above · Gunter

§ Orbital elements

Epoch: 2026-09-20T21:08:58.017984Z

Period
93.91 min
Inclination
97.2831°
Eccentricity
0.0001598
Mean motion
15.33441704 rev/d
Perigee alt
464.5 km
Apogee alt
466.6 km
Semi-major
6,843.7 km
B*
5.9214e-4
RAAN
132.8889°
Arg perigee
92.7626°
Mean anomaly
267.3800°
Rev number
6,220

§ Raw data

STARLINK-349491 65175U 25175B   26263.88122706  .00019088  00000+0  59214-3 0  99962 65175  97.2831 132.8889 0001598  92.7626 267.3800 15.33441704 62208

JSON: /api/v1/satellites/65175 · /tle

For live sub-satellite position, see the globe view (requires WebGL).

§ Visibility from observer

Set your observer location to see the next 7 days of passes ≥ 10°. The values pass through the URL so the page stays shareable.

No JS? Fill the form by hand. The geolocation button needs JavaScript.